This is the latest recevied weather packets stored in our database for station/object CQ0XCR-11. If no packets are shown the sender has not sent any weather packets the latest 1 day(s).
| Time | Temp. | Humidity | Pressure | Rain* | Wind** | Luminosity | Snow |
|---|---|---|---|---|---|---|---|
| 1778055011 | -2.78° C | - | 6550.2 hPa | 0 mm | 0.89 m/s, 325° | - | - |
| 1778054886 | -2.78° C | - | 6550.2 hPa | 0 mm | 2.24 m/s, 23° | - | - |
| 1778054762 | -2.78° C | - | 6550.2 hPa | 0 mm | 0.89 m/s, 11° | - | - |
| 1778054638 | -2.78° C | - | 6550.2 hPa | 0 mm | 0 m/s | - | - |
| 1778054514 | -2.78° C | - | 6550.2 hPa | 0 mm | 0 m/s | - | - |
| 1778054509 | -2.78° C | - | 6550.2 hPa | 0 mm | 0.45 m/s, 60° | - | - |
| 1778054385 | -2.78° C | - | 6550.2 hPa | 0 mm | 0.89 m/s, 325° | - | - |
| 1778054138 | -2.78° C | - | 6550.2 hPa | 0 mm | 1.34 m/s, 36° | - | - |
| 1778054013 | -2.78° C | - | 6550.2 hPa | 0 mm | 0.89 m/s, 57° | - | - |
| 1778053889 | -2.78° C | - | 6550.2 hPa | 0 mm | 1.79 m/s, 45° | - | - |
| 1778053769 | -2.78° C | - | 6550.2 hPa | 0 mm | 0.45 m/s, 355° | - | - |
| 1778053687 | -2.78° C | - | 6550.2 hPa | 0 mm | 0 m/s | - | - |
| 1778053642 | -2.78° C | - | 6550.2 hPa | 0 mm | 0 m/s | - | - |
| 1778053517 | -2.78° C | - | 6550.2 hPa | 0 mm | 0.45 m/s, 40° | - | - |
| 1778053435 | -2.78° C | - | 6550.2 hPa | 0 mm | 0.89 m/s, 32° | - | - |
| 1778053393 | -2.78° C | - | 6550.2 hPa | 0 mm | 0.89 m/s, 32° | - | - |
| 1778053269 | -2.78° C | - | 6550.2 hPa | 0 mm | 0.89 m/s, 46° | - | - |
| 1778053145 | -2.78° C | - | 6550.2 hPa | 0 mm | 0.89 m/s, 53° | - | - |
| 1778053021 | -2.78° C | - | 6550.2 hPa | 0 mm | 1.34 m/s, 7° | - | - |
| 1778052898 | -2.78° C | - | 6550.2 hPa | 0 mm | 0.45 m/s, 6° | - | - |
| 1778052774 | -2.78° C | - | 6550.2 hPa | 0 mm | 1.34 m/s, 54° | - | - |
| 1778052649 | -2.78° C | - | 6550.2 hPa | 0 mm | 0.45 m/s, 315° | - | - |
| 1778052525 | -2.78° C | - | 6550.2 hPa | 0 mm | 0.89 m/s, 9° | - | - |
| 1778052317 | -2.78° C | - | 6550.2 hPa | 0 mm | 0 m/s | - | - |
| 1778052279 | -2.78° C | - | 6550.2 hPa | 0 mm | 0 m/s | - | - |
* Rain since midnight (hover to see other rain measurements)
** Current wind speed in m/s (hover to see current wind gust speed)